DateTimeUTC,F1_A11,F1_S11,BsB_S11,BsG_S11,BsR_S11,BbsB_S11,BbsG_S11,BbsR_S11,BaB_A11,BaG_A11,BaR_A11,Tu_S11,T_S11,Uu_S11,U_S11,P_S11,T1_A11
2021-03-01T19:00:00Z,00000200,21000000,,,,,,,-000.39,-000.03,0000.33,15.8,23.7,,00.0,0643.5,30.9
2021-03-01T19:01:00Z,00000200,21000000,,,,,,,-000.27,-000.06,-000.39,15.8,23.7,,00.0,0643.5,30.9
2021-03-01T19:02:00Z,00000200,21000000,,,,,,,0000.05,-000.13,0000.12,15.9,23.8,,00.0,0643.5,31.0
2021-03-01T19:03:00Z,00000200,61000000,,,,,,,-000.06,0000.01,-000.14,15.9,23.8,,00.0,0643.5,31.0
2021-03-01T19:04:00Z,00000200,41000000,0001.93,0000.90,0000.16,0000.52,0000.16,-000.01,0000.41,0000.17,0000.54,16.3,23.6,,00.0,0644.4,31.0
2021-03-01T19:05:00Z,00000200,01000000,0001.44,0000.96,0000.55,0000.29,0000.33,0000.21,0000.44,0000.51,0000.26,16.4,23.6,,00.0,0644.5,31.0
2021-03-01T19:06:00Z,00000200,01000000,0001.75,0001.10,0000.55,0000.35,0000.33,0000.07,0000.50,0000.94,0000.03,16.4,23.6,,00.0,0644.5,31.0
2021-03-01T19:07:00Z,00000200,01000000,0001.65,0000.89,0000.27,0000.77,0000.23,-000.08,0000.11,-000.13,0000.11,16.4,23.6,,00.0,0644.6,30.9
2021-03-01T19:08:00Z,00000200,01000000,0001.42,0000.67,0000.46,0000.45,0000.31,0000.10,0000.66,0000.45,0000.90,16.3,23.5,,00.0,0644.6,30.9
2021-03-01T19:09:00Z,00000200,01000000,0001.41,0000.88,0000.53,0000.32,0000.14,0000.04,0000.01,0000.11,-000.40,16.2,23.5,,00.0,0644.6,30.9
2021-03-01T19:10:00Z,00000200,01000000,0001.61,0001.16,0000.65,0000.27,0000.06,0000.09,0000.59,0000.24,0000.56,16.2,23.5,,00.0,0644.6,30.9
2021-03-01T19:11:00Z,00000200,01000000,0001.79,0001.02,0000.65,0000.36,0000.14,0000.07,0000.51,0000.69,0000.08,16.1,23.4,,00.0,0644.6,30.9
2021-03-01T19:12:00Z,00000200,01000000,0001.59,0001.16,0000.39,0000.18,0000.22,0000.16,-000.06,-000.22,0000.06,16.1,23.4,,00.0,0644.6,30.9
2021-03-01T19:13:00Z,00000200,01000000,0001.54,0001.08,0000.38,0000.55,0000.25,0000.02,0000.36,0000.44,0000.15,16.1,23.4,,00.0,0644.6,30.9
2021-03-01T19:14:00Z,00000200,01000000,0001.49,0001.34,0000.55,0000.65,0000.13,0000.13,0000.57,0000.55,0000.49,16.1,23.3,,00.0,0644.6,30.9
2021-03-01T19:15:00Z,00000200,01000000,0001.27,0001.18,0000.37,0000.68,0000.16,-000.04,0000.29,0000.48,0000.18,16.1,23.3,,00.0,0644.6,30.9
2021-03-01T19:16:00Z,00000200,01000000,0001.52,0000.88,0000.36,0000.56,0000.16,0000.08,0000.45,0000.34,0000.47,16.1,23.4,,00.0,0644.6,30.9
2021-03-01T19:17:00Z,00000200,01000000,0001.87,0001.12,0000.53,0000.55,0000.36,0000.17,0000.23,0000.26,0000.30,16.2,23.4,,00.0,0644.7,30.9
2021-03-01T19:18:00Z,00000200,01000000,0001.81,0001.15,0000.38,0000.39,0000.07,0000.18,0000.24,-000.18,0000.10,16.3,23.4,,00.0,0644.7,30.9
2021-03-01T19:19:00Z,00000200,01000000,0001.56,0001.12,0000.62,0000.65,0000.13,0000.12,0000.08,0000.19,-000.14,16.3,23.5,,00.0,0644.7,30.9
2021-03-01T19:20:00Z,00000200,01000000,0001.60,0001.07,0000.64,0000.53,0000.28,0000.19,0000.38,0000.36,0000.20,16.3,23.5,,00.0,0644.7,30.9
2021-03-01T19:21:00Z,00000200,01000000,0001.49,0001.19,0000.41,0000.36,0000.43,-000.04,0000.24,0000.07,0000.35,16.3,23.4,,00.0,0644.7,30.9
2021-03-01T19:22:00Z,00000200,01000000,0001.71,0001.26,0000.44,-000.17,0000.43,0000.03,0000.42,0000.48,-000.04,16.2,23.4,,00.0,0644.7,30.9
2021-03-01T19:23:00Z,00000200,01000000,0001.24,0001.24,0000.61,0000.23,0000.21,0000.16,0000.23,0000.16,0000.51,16.2,23.4,,00.0,0644.7,30.9
2021-03-01T19:24:00Z,00000200,01000000,0001.18,0001.15,0000.46,0000.71,0000.17,0000.12,0000.29,0000.14,0000.23,16.1,23.3,,00.0,0644.7,30.9
2021-03-01T19:25:00Z,00000200,01000000,0001.70,0000.79,0000.48,0000.32,0000.22,0000.55,0000.35,0000.34,0000.26,16.1,23.4,,00.0,0644.7,30.9
2021-03-01T19:26:00Z,00000200,01000000,0001.53,0000.98,0000.60,0000.64,0000.05,0000.16,0000.25,0000.42,0000.07,16.0,23.3,,00.0,0644.7,30.9
2021-03-01T19:27:00Z,00000200,01000000,0001.67,0001.05,0000.61,0000.70,0000.19,0000.17,0000.47,0000.50,0000.17,16.0,23.3,,00.0,0644.7,30.9
2021-03-01T19:28:00Z,00000200,01000000,0001.31,0000.82,0000.44,0000.26,0000.03,0000.06,0000.53,-000.16,0000.03,16.0,23.3,,00.0,0644.6,30.9
2021-03-01T19:29:00Z,00000200,01000000,0001.19,0000.89,0000.34,0000.11,0000.37,0000.26,-000.00,0000.54,0000.51,16.0,23.2,,00.0,0644.6,30.9
2021-03-01T19:30:00Z,00000200,01000000,0001.56,0000.73,0000.44,0000.40,0000.19,0000.21,0000.39,-000.00,0000.17,16.0,23.3,,00.0,0644.6,30.9
2021-03-01T19:31:00Z,00000200,01000000,0001.40,0000.85,0000.46,0000.29,0000.37,0000.19,0000.74,0000.79,0000.13,16.1,23.3,,00.0,0644.6,30.9
2021-03-01T19:32:00Z,00000200,01000000,0001.39,0000.77,0000.66,0000.34,0000.20,0000.15,-000.05,-000.04,0000.14,16.2,23.3,,00.0,0644.6,30.9
2021-03-01T19:33:00Z,00000200,01000000,0002.01,0001.12,0000.33,0000.55,0000.31,-000.12,0000.74,0000.86,0000.67,16.3,23.4,,00.0,0644.6,30.9
2021-03-01T19:34:00Z,00000200,01000000,0001.41,0001.01,0000.48,0000.26,0000.02,0000.09,0000.01,0000.16,0000.10,16.3,23.4,,00.0,0644.6,30.9
2021-03-01T19:35:00Z,00000200,01000000,0001.03,0000.88,0000.32,0000.34,0000.26,0000.09,0000.70,0000.36,0000.22,16.4,23.4,,00.0,0644.6,30.9
2021-03-01T19:36:00Z,00000200,01000000,0001.02,0000.91,0000.55,0000.68,0000.23,-000.08,0000.18,0000.27,0000.38,16.5,23.5,,00.0,0644.7,31.0
2021-03-01T19:37:00Z,00000200,01000000,0001.34,0001.07,0000.44,0000.43,0000.18,-000.02,0000.41,0000.23,0000.10,16.5,23.5,,00.0,0644.7,31.0
2021-03-01T19:38:00Z,00000200,01000000,0001.40,0001.19,0000.41,0000.42,0000.08,0000.06,0000.39,0000.52,0000.43,16.6,23.6,,00.0,0644.8,31.0
2021-03-01T19:39:00Z,00000200,01000000,0000.88,0001.12,0000.30,0000.30,0000.16,0000.17,0000.09,0000.11,0000.19,16.6,23.6,,00.0,0644.8,31.0
2021-03-01T19:40:00Z,00000200,01000000,0001.41,0000.73,0000.43,0000.29,0000.18,0000.01,0000.28,0000.70,0000.18,16.6,23.6,,00.0,0644.8,31.0
2021-03-01T19:41:00Z,00000200,01000000,0000.86,0000.85,0000.42,-000.14,0000.39,0000.15,0000.57,0000.05,-000.02,16.6,23.6,,00.0,0644.8,31.0
2021-03-01T19:42:00Z,00000200,01000000,0001.44,0001.05,0000.39,0000.32,0000.17,0000.09,-000.03,0000.26,0000.39,16.5,23.6,,00.0,0644.8,31.0
2021-03-01T19:43:00Z,00000200,01000000,0001.43,0000.94,0000.23,0000.51,0000.21,0000.09,0000.02,0000.16,0000.04,16.5,23.5,,00.0,0644.9,30.9
2021-03-01T19:44:00Z,00000200,01000000,0001.04,0000.96,0000.44,0000.19,0000.15,-000.07,0000.73,0000.23,0000.02,16.5,23.5,,00.0,0644.9,30.9
2021-03-01T19:45:00Z,00000200,01000000,0001.51,0000.90,0000.49,0000.41,0000.27,-000.01,-000.07,-000.18,0000.28,16.5,23.6,,00.0,0644.9,30.9
2021-03-01T19:46:00Z,00000200,01000000,0001.52,0000.93,0000.30,-000.02,0000.31,-000.07,0000.34,0000.55,0000.15,16.6,23.6,,00.0,0644.9,30.9
2021-03-01T19:47:00Z,00000200,01000000,0001.08,0001.22,0000.23,0000.22,0000.14,0000.33,0000.54,0000.12,0000.06,16.6,23.6,,00.0,0644.9,31.0
2021-03-01T19:48:00Z,00000200,01000000,0001.12,0000.74,-000.06,0000.14,0000.09,-000.21,0000.26,0000.29,0000.35,16.7,23.7,,00.0,0644.9,31.0
2021-03-01T19:49:00Z,00000200,01000000,0001.62,0000.89,0000.30,0000.64,0000.33,-000.08,0000.17,0000.40,0000.40,16.7,23.7,,00.0,0644.9,31.0
2021-03-01T19:50:00Z,00000200,01000000,0001.36,0000.66,0000.40,0000.07,0000.35,-000.01,0000.34,0000.28,-000.10,16.8,23.7,,00.0,0644.9,31.0
2021-03-01T19:51:00Z,00000200,01000000,0001.02,0000.94,0000.39,0000.34,0000.10,0000.04,0000.31,0000.29,0000.25,16.8,23.8,,00.0,0644.9,31.0
2021-03-01T19:52:00Z,00000200,01000000,0001.18,0001.00,0000.18,0000.42,0000.06,0000.18,0000.54,0000.42,0000.34,16.9,23.8,,00.0,0644.9,31.0
2021-03-01T19:53:00Z,00000200,01000000,0000.92,0000.94,0000.44,0000.84,0000.01,0000.19,0000.02,-000.05,0000.34,16.9,23.8,,00.0,0644.9,31.0
2021-03-01T19:54:00Z,00000200,01000000,0001.25,0000.72,0000.29,0000.31,0000.06,0000.06,0000.65,0000.88,0000.25,16.9,23.8,,00.0,0644.8,31.0
2021-03-01T19:55:00Z,00000200,01000000,0001.40,0000.90,0000.38,0000.37,0000.28,-000.03,0000.18,0000.37,0000.33,16.8,23.8,,00.0,0644.8,31.0
2021-03-01T19:56:00Z,00000200,01000000,0000.71,0000.57,0000.60,0000.47,0000.28,0000.18,0000.51,0000.08,0000.19,16.8,23.7,,00.0,0644.9,31.0
2021-03-01T19:57:00Z,00000200,41000000,,,,,,,0000.54,0000.17,0000.42,16.8,23.7,,00.0,0644.9,30.9
2021-03-01T19:58:00Z,00000200,61000000,,,,,,,-000.36,0000.00,-000.17,16.3,23.8,,00.0,0644.0,30.9
2021-03-01T19:59:00Z,00000200,21000000,,,,,,,-000.38,-000.65,-000.61,16.3,24.0,,00.0,0644.0,30.9
